LUCH-5V

Last updated on Thu Aug 13 2026 00:02:59 GMT+0000 (Coordinated Universal Time)

1 39727U 14023A 26224.66167475 -.00000287 00000+0 00000+0 0 9992 2 39727 5.2686 69.1296 0002405 112.0829 112.8345 1.00272398 44929
UTC large
Height (km)
Speed (km/s)
/
Latitude / Longitude
Inclination (degrees)
Orbital Period (minutes)
Azimuth
Elevation
Range (km)
Doppler Factor

Next 0 passes for location: London (51.5072 / 0.1276)

No passes found over London.
LUCH-5V